Location: Sangrey
(48.2845°N, 109.8206°W)
Time: 23:20:06
(UTC+00:00)

BlueWalker 3 - Pass Details

Date: 04 December 2022
Orbit: 499 x 517 km, 53.2° (Epoch: 04 February)

Event Time Altitude Azimuth Distance (km) Brightness Sun altitude
Rises 01:15:22 0° 288° (WNW) 2,629 6.6 -17.4°
Reaches altitude 10° 01:17:40 10° 295° (WNW) 1,738 5.4 -17.7°
Maximum altitude 01:21:24 41° 7° (N) 750 2.6 -18.3°
Enters shadow 01:22:00 38° 32° (NNE) 790 2.5 -18.4°
